Location: Lavington
(51.2833°N, 1.9833°W)
Time: 19:55:51
(UTC+00:00)

STARLINK-1236 - Pass Details

Date: 01 June 2020
Orbit: 548 x 551 km, 53.0° (Epoch: 05 July)

Event Time Altitude Azimuth Distance (km) Brightness Sun altitude
Rises 23:34:17 0° 280° (W) 2,720 7.4 -16.2°
Reaches altitude 10° 23:36:32 10° 283° (WNW) 1,827 6.5 -16.2°
Maximum altitude 23:40:41 73° 9° (N) 580 3.8 -16.3°
Drops below altitude 10° 23:44:50 10° 94° (E) 1,826 6.2 -16.4°
Sets 23:47:04 0° 96° (E) 2,719 7.1 -16.4°
